Tracking 32579 objects as of 17-Dec-2025
HD Live streaming from Space Station
objects crossing your sky now

LES 9

Track LES 9 now!
LES 9 is classified as:


NORAD ID: 8747
Int'l Code: 1976-023B
Perigee: 35,686.5 km
Apogee: 35,897.8 km
Inclination: 22.0 °
Period: 1,436.0 minutes
Semi major axis: 42163 km
RCS: 3.1777 m2 (large)
Launch date: March 15, 1976
Source: United States (US)
Launch site: AIR FORCE EASTERN TEST RANGE (AFETR)

Original purpose was "Air Force sponsored program in space communications"; nuclear-powered; circuits jam-resistant to operate in hostile environment.
Your satellite tracking list
Your tracking list is empty




NASA's NSSDC Master Catalog

Two Line Element Set (TLE):
1 08747U 76023B   25350.17907887 -.00000110  00000-0  00000-0 0  9999
2 08747  22.0201  39.3821 0025052 178.4664 187.2270  1.00277552127849
Source of the keplerian elements: AFSPC